カタログに戻る

DELTA 1 DEB

運用中SSO
NORAD 21475·DEBRIS·🇺🇸 United States

打ち上げ Jun 12, 1975 から Vandenberg Space Force Base

Loading…

次のパス (今後24時間)

TLE

最新Source: Space-Track

元期: Sep 13, 2026, 22:59 UTC

1 21475U 75052FK  26256.95810208  .00000006  00000-0  70613-4 0  9999
2 21475  99.6179  62.8323 0091448   7.9113 145.6106 13.54161838743516

AllMySatでDELTA 1 DEBをリアルタイム追跡

Download on the App Store